Temp
82 81 81 81 80 81 80 80 79 79 79 79 79 79 78 77 77 74 74 75 72 68 65 64 70 73 70 74 74 72 70 70 65 66 68 70 71 73 73 70 68 68 66
82 81 80 80 80 79 79 79 80 79 80 80 80 80 80 79 78 77 75 76 64 62 63 64 72 73 72 72 71 68 72 72 66 65 64 63 64 66 65 64 63 65 64
82 81 79 79 79 78 78 78 79 79 79 80 80 80 80 79 77 77 75 71 62 63 64 65 72 72 70 70 72 73 72 71 70 68 60 62 61 61 61 61 61 61 61
82 81 79 78 78 78 78 78 79 80 79 80 80 81 80 80 79 77 73 68 65 62 67 69 73 73 72 72 71 72 72 70 71 66 60 59 59 59 59 57 57 59 58
81 80 78 78 79 79 78 78 79 79 80 81 80 80 78 79 76 73 69 65 63 66 62 65 72 69 61 66 75 72 70 70 69 62 59 58 56 57 56 57 56 56 56
81 80 80 79 79 77 77 77 78 79 80 80 79 79 77 78 49 52 62 68 64 64 68 67 72 64 62 57 57 58 67 69 68 64 59 57 57 57 57 57 56 54 52
81 81 80 79 79 78 78 78 77 77 76 77 77 77 75 73 49 50 53 70 65 64 62 64 62 67 65 69 54 54 55 56 64 69 61 60 58 58 59 57 58 61 56
82 81 81 80 79 78 78 77 76 76 74 74 75 76 75 68 48 48 52 69 64 63 62 63 64 67 67 66 66 67 69 69 70 71 67 65 63 62 62 63 62 58 56
82 81 81 79 78 77 77 76 76 75 73 75 76 75 73 68 48 47 57 67 62 61 61 61 63 67 51 50 68 69 68 63 53 52 54 51 50 50 56 58 55 55 53
81 80 80 82 79 78 77 76 77 77 76 79 76 75 59 67 46 47 58 63 60 58 59 59 52 61 46 49 67 65 61 62 64 60 58 52 54 52 52 61 61 58 57
81 81 81 81 79 79 77 77 76 76 77 75 74 71 67 65 61 47 51 64 62 62 60 58 57 44 45 47 55 65 62 63 57 61 59 58 58 60 59 62 64 64 63
82 82 81 79 81 79 76 75 75 73 72 72 70 68 67 65 52 48 49 53 56 68 62 58 51 43 44 46 57 45 46 55 63 60 59 58 59 61 62 66 68 70 75
82 80 79 79 80 79 75 74 72 72 70 71 69 71 65 62 59 44 45 47 50 66 64 48 42 42 43 46 44 46 49 61 61 60 60 61 63 65 69 70 71 72 72
80 79 79 79 78 78 78 74 72 72 73 73 72 70 66 60 59 62 61 64 51 55 50 52 48 47 48 50 54 56 66 65 64 63 62 65 66 68 68 72 69 67 73
77 80 79 80 78 77 75 72 73 72 69 76 73 73 66 62 59 58 60 69 68 58 57 60 58 56 55 57 59 63 70 67 67 68 69 68 70 69 69 73 73 73 75
76 80 82 81 80 80 78 73 44 45 44 45 45 61 71 53 46 45 44 44 45 45 62 63 60 58 58 59 62 64 68 64 71 70 69 70 71 71 74 75 77 76 75
80 80 82 79 82 80 79 75 71 58 42 41 43 43 49 49 43 43 43 43 43 48 67 66 65 64 63 65 68 70 70 71 72 72 72 72 77 77 73 75 77 77 76
83 61 84 85 84 83 80 79 76 74 71 70 47 47 42 41 41 41 42 47 59 60 67 67 68 70 71 73 73 71 71 71 74 73 73 76 77 77 75 76 77 76 77
84 84 86 86 86 80 83 80 76 76 75 74 69 54 45 39 39 40 44 66 65 67 71 72 73 74 75 76 77 78 76 77 77 77 77 78 78 78 77 77 78 60 64
85 64 71 86 84 84 83 83 82 81 80 76 76 74 61 57 57 55 64 67 67 70 70 71 72 73 74 77 76 79 77 74 76 77 78 79 79 79 79 79 79 78 77
88 84 64 86 85 85 85 83 83 82 82 81 80 73 50 76 72 68 72 74 76 79 78 78 79 78 79 79 80 79 77 76 78 78 79 79 79 78 79 80 80 80 79
88 86 85 86 86 85 85 85 84 84 84 83 82 68 41 73 81 78 78 80 82 82 82 80 82 81 81 81 81 80 79 77 79 80 80 81 80 80 80 80 80 79 79
86 85 85 86 86 70 81 85 85 85 84 84 84 76 72 78 84 83 81 82 82 83 85 84 83 84 85 84 84 83 82 81 82 82 81 81 81 81 80 79 79 79 79
84 83 82 83 85 84 83 83 84 66 83 85 84 83 81 82 84 84 86 85 84 84 84 84 84 84 84 84 85 85 85 85 86 85 83 82 82 78 81 81 81 80 79
60 73 78 78 79 77 78 80 80 80 81 82 81 83 83 82 82 82 82 83 85 85 84 84 84 83 82 82 76 74 60 41 68 53 82 83 81 80 81 82 81 80 80
50 51 54 59 61 61 61 61 62 62 63 66 68 71 73 72 71 72 73 73 77 79 79 81 78 70 64 62 52 38 35 35 50 36 63 77 78 79 81 80 80 80 80
MSLP
998.09 998.57 999.08 999.69 1000.26 1000.87 1001.44 1002.12 1002.79 1003.39 1003.94 1004.35 1004.73 1005.12 1005.45 1005.75 1005.99 1006.37 1006.58 1006.70 1007.15 1008.01 1008.49 1008.69 1008.30 1008.24 1008.46 1008.37 1008.64 1009.03 1009.25 1009.48 1009.65 1010.67 1011.21 1011.75 1011.82 1011.90 1012.28 1012.85 1013.36 1013.80 1014.66
998.27 998.87 999.65 1000.25 1000.76 1001.29 1001.82 1002.44 1003.09 1003.52 1003.95 1004.31 1004.62 1004.88 1005.10 1005.42 1005.69 1005.90 1006.06 1006.16 1007.19 1007.93 1008.24 1008.55 1008.02 1007.97 1008.09 1008.32 1008.63 1009.11 1009.09 1009.35 1009.72 1010.51 1011.69 1012.27 1012.58 1012.76 1013.14 1013.45 1013.77 1014.31 1015.04
998.58 999.46 1000.24 1000.82 1001.24 1001.68 1002.20 1002.84 1003.27 1003.70 1004.02 1004.29 1004.53 1004.66 1004.96 1005.28 1005.57 1005.78 1006.00 1006.54 1007.41 1007.85 1008.09 1008.08 1007.72 1007.73 1007.90 1008.21 1008.32 1008.67 1008.95 1009.32 1009.71 1010.63 1011.88 1012.65 1013.19 1013.46 1013.76 1014.22 1014.68 1015.26 1015.95
998.99 999.80 1000.50 1001.13 1001.63 1002.04 1002.58 1003.10 1003.51 1003.75 1004.04 1004.34 1004.55 1004.63 1004.96 1005.27 1005.52 1005.70 1006.06 1006.58 1007.06 1007.52 1007.62 1007.74 1007.64 1007.58 1007.73 1007.92 1008.30 1008.56 1008.89 1009.39 1009.82 1011.01 1012.16 1012.88 1013.48 1014.06 1014.33 1014.67 1015.62 1016.26 1016.70
999.40 1000.07 1000.84 1001.48 1001.92 1002.37 1002.79 1003.21 1003.54 1003.81 1004.01 1004.23 1004.58 1004.90 1005.30 1005.53 1005.93 1006.06 1006.40 1006.76 1007.17 1007.43 1007.92 1008.02 1007.83 1007.80 1008.08 1008.04 1008.15 1008.63 1009.02 1009.45 1010.07 1011.42 1012.24 1013.14 1013.81 1014.28 1014.80 1015.51 1016.10 1016.97 1017.88
999.79 1000.36 1001.03 1001.48 1002.05 1002.62 1003.08 1003.38 1003.72 1003.84 1004.11 1004.29 1004.62 1004.87 1005.35 1005.64 1007.07 1006.98 1006.74 1006.80 1007.39 1007.66 1007.72 1007.92 1007.87 1008.47 1008.73 1008.90 1008.96 1009.07 1009.23 1009.59 1010.04 1011.23 1012.30 1013.14 1013.98 1014.53 1015.27 1015.73 1016.43 1017.21 1018.55
999.87 1000.53 1001.09 1001.58 1002.09 1002.71 1003.11 1003.47 1003.75 1004.06 1004.62 1004.67 1004.87 1005.15 1005.55 1006.35 1007.31 1007.25 1007.19 1006.88 1007.54 1007.83 1007.98 1008.26 1008.62 1008.70 1008.93 1009.16 1009.64 1009.70 1009.84 1010.21 1010.34 1011.02 1012.03 1012.95 1013.89 1014.59 1015.16 1016.07 1016.62 1017.27 1018.27
999.88 1000.43 1001.09 1001.48 1002.08 1002.70 1003.12 1003.42 1003.91 1004.39 1004.87 1005.01 1005.06 1005.35 1005.77 1006.85 1007.46 1007.60 1007.39 1007.29 1007.74 1008.05 1008.36 1008.63 1008.78 1008.87 1009.03 1009.42 1009.61 1009.86 1010.33 1010.87 1011.14 1011.14 1012.24 1013.07 1014.00 1014.85 1015.24 1015.83 1016.55 1017.88 1019.15
999.67 1000.32 1000.93 1001.55 1002.15 1002.73 1003.06 1003.64 1004.05 1004.54 1004.99 1005.13 1005.18 1005.46 1006.01 1006.92 1007.67 1007.81 1007.67 1007.57 1008.12 1008.32 1008.60 1008.86 1009.18 1009.06 1009.74 1009.89 1009.74 1009.94 1010.47 1011.58 1012.02 1012.05 1012.74 1013.61 1014.53 1015.23 1015.66 1016.30 1017.34 1017.95 1018.96
999.64 1000.33 1000.99 1001.47 1002.12 1002.69 1003.20 1003.69 1004.03 1004.52 1004.88 1004.86 1005.29 1005.79 1006.88 1007.19 1007.91 1008.00 1007.95 1008.19 1008.38 1008.61 1009.02 1009.33 1009.61 1009.70 1010.23 1010.43 1010.25 1010.64 1011.22 1011.87 1012.59 1013.49 1014.36 1014.94 1015.16 1016.05 1016.38 1016.48 1016.70 1017.55 1018.30
999.88 1000.50 1001.13 1001.72 1002.32 1002.78 1003.41 1003.88 1004.25 1004.47 1004.69 1005.09 1005.50 1006.25 1007.06 1007.39 1008.06 1008.29 1008.33 1008.34 1008.58 1008.80 1009.24 1009.76 1010.11 1010.42 1010.75 1010.90 1010.95 1011.30 1011.87 1012.42 1013.28 1013.89 1014.67 1015.29 1015.78 1016.29 1016.66 1016.82 1016.83 1017.32 1017.51
999.96 1000.54 1001.27 1002.04 1002.27 1003.03 1003.59 1004.17 1004.51 1004.80 1005.05 1005.33 1005.88 1006.74 1007.27 1007.89 1008.40 1008.58 1008.60 1008.61 1008.55 1008.51 1009.38 1010.13 1010.83 1010.98 1011.26 1011.44 1011.54 1012.15 1012.72 1013.14 1013.64 1014.26 1014.86 1015.43 1015.84 1016.12 1016.43 1016.47 1016.62 1016.59 1016.32
1000.03 1000.70 1001.55 1002.15 1002.48 1003.03 1003.85 1004.27 1004.60 1004.82 1005.15 1005.41 1005.84 1006.09 1007.37 1008.20 1008.83 1008.95 1009.01 1009.07 1009.03 1009.09 1009.84 1010.73 1011.31 1011.60 1011.88 1012.20 1012.52 1012.98 1013.33 1013.60 1013.94 1014.34 1014.80 1015.27 1015.82 1015.92 1016.04 1016.40 1016.58 1016.85 1017.13
1000.28 1000.95 1001.66 1002.08 1002.55 1003.18 1003.85 1004.45 1004.66 1004.73 1004.93 1005.19 1005.62 1006.23 1007.27 1008.28 1008.89 1009.17 1009.51 1009.55 1009.92 1010.51 1010.97 1011.42 1011.74 1012.04 1012.29 1012.88 1013.24 1013.38 1013.31 1013.57 1013.85 1014.26 1014.72 1015.19 1015.66 1015.93 1016.06 1016.19 1016.60 1017.11 1016.38
1000.86 1001.00 1001.53 1001.97 1002.53 1003.26 1004.11 1005.10 1005.04 1005.20 1005.43 1005.40 1005.58 1006.03 1007.07 1008.10 1008.90 1009.04 1009.35 1009.09 1009.71 1010.68 1011.12 1011.49 1011.96 1012.43 1012.83 1013.13 1013.30 1013.20 1012.86 1013.32 1013.68 1014.01 1014.38 1014.95 1015.14 1015.52 1015.76 1015.89 1016.09 1016.23 1015.80
1000.91 1000.90 1001.07 1001.63 1002.28 1002.83 1003.73 1005.17 1006.26 1006.22 1006.25 1006.19 1006.19 1006.10 1006.87 1007.65 1008.84 1009.38 1009.54 1009.82 1010.42 1010.84 1010.91 1011.15 1011.83 1012.32 1012.61 1012.84 1012.81 1012.91 1012.97 1013.36 1013.40 1013.88 1014.34 1014.44 1014.63 1014.86 1014.83 1015.17 1015.24 1015.33 1015.40
1000.11 1000.81 1001.02 1001.31 1001.71 1002.37 1003.17 1004.35 1005.44 1007.06 1007.20 1007.25 1007.25 1007.23 1007.32 1008.32 1009.12 1009.64 1010.01 1010.40 1010.74 1010.75 1010.47 1010.81 1011.29 1011.79 1012.16 1012.36 1012.23 1012.28 1012.53 1012.85 1013.11 1013.27 1013.51 1013.79 1013.56 1013.89 1014.53 1014.57 1014.62 1014.76 1014.86
1000.03 1000.65 1000.82 1000.78 1001.34 1001.98 1002.75 1003.58 1004.19 1005.26 1006.23 1007.14 1008.19 1008.36 1008.64 1009.03 1009.52 1010.03 1010.51 1010.87 1011.14 1010.88 1010.65 1010.72 1010.91 1011.08 1011.16 1011.25 1011.44 1011.71 1011.93 1012.41 1012.46 1012.83 1013.04 1013.17 1013.21 1013.51 1013.91 1013.88 1014.10 1014.21 1014.27
1000.00 1000.42 1000.34 1000.62 1001.07 1001.69 1002.39 1002.81 1003.63 1004.15 1004.87 1006.03 1007.63 1008.76 1009.56 1009.91 1010.18 1010.35 1010.45 1010.23 1010.34 1010.12 1009.99 1010.09 1010.18 1010.41 1010.54 1010.59 1010.72 1010.91 1011.25 1011.48 1011.85 1012.13 1012.32 1012.50 1012.80 1012.99 1013.22 1013.47 1013.42 1013.70 1013.82
999.95 1000.28 1000.45 1000.72 1001.43 1001.75 1002.27 1002.45 1002.88 1003.38 1004.07 1005.27 1006.06 1007.35 1009.17 1009.88 1010.33 1010.62 1010.14 1009.63 1009.73 1009.79 1009.91 1009.98 1010.16 1010.23 1010.36 1010.15 1010.46 1010.63 1011.16 1011.61 1011.80 1011.92 1011.90 1012.12 1012.38 1012.59 1012.58 1012.70 1012.85 1012.90 1013.18
999.70 1000.75 1000.87 1000.70 1001.12 1001.39 1001.79 1002.26 1002.83 1003.26 1003.56 1004.22 1005.24 1007.09 1007.75 1008.14 1008.73 1009.38 1008.89 1008.73 1008.57 1008.34 1008.66 1008.79 1009.10 1009.59 1009.79 1009.91 1009.96 1010.35 1010.97 1011.36 1011.24 1011.45 1011.41 1011.59 1011.81 1011.90 1012.11 1012.01 1012.08 1012.21 1012.21
999.76 1000.37 1000.88 1000.56 1000.89 1001.41 1001.73 1002.16 1002.65 1003.06 1003.44 1004.02 1005.04 1007.46 1007.88 1007.95 1007.05 1007.50 1007.54 1007.28 1007.43 1007.68 1008.07 1008.44 1008.49 1008.90 1009.10 1009.24 1009.48 1009.82 1010.22 1010.62 1010.65 1010.67 1010.86 1010.94 1011.15 1011.34 1011.40 1011.40 1011.46 1011.45 1011.44
1000.34 1000.44 1000.62 1000.70 1001.15 1001.97 1002.44 1002.29 1002.59 1002.93 1003.28 1003.80 1004.69 1006.76 1007.80 1007.10 1005.97 1006.11 1006.41 1006.78 1007.06 1007.24 1007.45 1007.78 1008.03 1008.11 1008.43 1008.67 1008.84 1009.15 1009.29 1009.42 1009.61 1009.85 1010.07 1010.19 1010.27 1010.32 1010.41 1010.40 1010.41 1010.38 1010.37
1001.16 1001.19 1001.30 1001.40 1001.56 1002.12 1002.44 1002.84 1003.07 1003.70 1003.48 1003.80 1004.60 1005.46 1006.21 1006.30 1006.10 1006.09 1006.21 1006.41 1006.74 1007.09 1007.40 1007.61 1007.83 1007.92 1008.03 1008.33 1008.42 1008.64 1008.73 1008.80 1008.85 1008.91 1009.30 1009.35 1009.36 1009.37 1009.57 1009.31 1009.26 1009.26 1009.34
1004.32 1002.86 1002.66 1002.86 1003.08 1003.73 1003.87 1003.98 1004.28 1004.65 1004.91 1005.04 1005.46 1005.92 1005.98 1006.40 1006.39 1006.65 1006.92 1007.05 1007.18 1007.32 1007.51 1007.65 1007.72 1007.77 1008.05 1008.39 1008.85 1009.04 1009.26 1009.71 1009.41 1009.32 1008.93 1008.71 1008.80 1008.87 1008.73 1008.44 1008.36 1008.38 1008.37
1006.82 1006.16 1005.99 1006.10 1006.30 1006.86 1007.21 1007.53 1007.95 1008.44 1008.61 1008.65 1008.60 1008.43 1008.20 1008.55 1008.96 1009.01 1009.03 1009.12 1008.62 1008.28 1008.38 1008.30 1008.46 1009.30 1009.98 1010.62 1011.69 1011.75 1011.16 1010.82 1010.43 1010.57 1010.10 1009.20 1008.79 1008.35 1007.93 1007.68 1007.66 1007.56 1007.27
Wind_Speed
15 15 15 14 14 13 12 12 12 11 11 10 8 8 8 8 7 6 8 8 8 7 5 4 7 7 6 6 6 4 5 5 6 4 5 6 5 6 6 7 9 10 12
15 15 14 14 14 13 12 12 11 10 9 9 9 8 8 7 6 7 7 5 7 6 7 8 10 6 8 8 7 7 6 6 7 12 7 3 3 6 7 8 7 7 10
16 16 14 13 13 12 12 11 10 10 10 9 9 7 6 4 6 5 5 6 7 8 8 7 8 8 8 7 8 9 6 5 7 9 4 3 3 5 8 9 9 10 7
16 15 14 12 12 11 10 10 10 11 10 9 6 6 3 3 2 4 4 6 8 7 10 7 6 8 9 9 6 8 7 7 8 10 5 5 3 5 7 10 9 8 9
14 14 13 12 11 11 11 11 10 10 9 8 6 6 4 2 5 3 3 5 6 7 4 5 8 1 5 5 6 7 9 8 9 9 5 6 6 6 9 8 11 10 9
14 14 13 12 11 11 11 11 10 9 7 7 6 5 4 5 5 4 1 8 7 5 5 4 4 6 7 4 3 2 9 11 12 11 7 9 8 9 9 10 12 12 6
13 13 11 10 11 11 11 11 11 8 7 6 6 5 4 7 4 3 1 7 7 4 3 4 4 4 8 9 8 9 10 5 9 13 13 11 11 12 11 12 13 11 9
13 11 10 9 10 9 10 11 9 8 7 5 5 5 5 6 4 1 4 7 5 5 6 6 6 8 7 10 12 12 12 9 10 8 11 12 12 12 11 13 12 12 9
12 10 9 9 10 10 12 11 9 7 6 5 5 4 6 6 3 1 1 6 6 5 5 5 4 8 9 9 12 14 13 8 12 14 13 15 15 13 12 12 10 12 8
11 10 9 10 11 11 11 10 8 7 8 5 6 6 7 7 3 1 2 5 5 4 5 6 7 7 9 9 10 11 11 11 13 14 12 13 14 12 8 8 12 10 9
10 11 10 10 10 10 10 8 7 7 7 5 6 7 5 5 5 3 5 5 5 5 5 4 4 10 8 8 8 9 10 12 13 12 10 9 10 10 6 8 9 10 10
10 11 11 11 9 9 9 8 7 6 7 6 7 6 5 5 5 4 6 5 1 6 6 5 5 9 9 9 9 15 14 11 10 9 9 9 8 9 8 7 5 6 3
11 11 11 11 9 8 7 7 6 7 6 7 6 6 5 4 4 7 8 7 10 8 8 9 11 11 12 12 15 15 10 7 8 8 9 8 9 7 10 8 7 7 3
12 12 11 10 8 7 5 5 5 5 5 5 5 5 6 5 4 6 6 9 12 10 13 7 9 10 9 9 10 7 7 8 8 8 7 8 6 9 8 7 7 6 6
11 11 10 9 7 7 4 4 3 6 4 4 5 6 7 6 5 7 8 8 9 10 9 8 6 5 7 6 5 4 8 8 9 9 10 10 9 9 8 9 9 9 7
12 8 8 9 8 7 7 8 14 12 12 11 12 2 7 11 13 9 10 14 17 13 8 8 9 7 6 6 5 8 7 9 10 9 9 9 10 10 10 9 9 9 8
13 10 8 7 7 6 8 7 8 7 12 12 11 11 8 13 13 11 13 14 13 8 8 9 9 9 9 9 8 10 9 10 12 9 10 9 10 9 8 9 8 8 8
11 8 8 7 7 7 8 8 7 8 8 7 11 9 10 12 12 13 14 11 6 3 7 7 8 8 8 9 10 9 8 9 8 6 9 10 9 9 9 9 9 9 9
10 9 8 7 7 7 6 7 7 9 9 8 8 6 9 11 9 10 14 8 8 5 6 8 8 8 8 8 8 8 9 9 8 9 9 9 10 9 10 10 9 9 8
10 9 5 7 8 7 7 5 6 6 7 9 7 10 8 6 5 5 7 6 6 7 7 7 6 6 8 8 8 8 7 6 8 8 9 9 9 10 10 11 10 11 12
9 8 3 7 8 7 7 7 6 5 6 7 9 10 11 9 10 10 9 10 9 8 8 8 10 10 9 8 8 9 9 9 9 10 9 10 10 10 11 11 11 12 12
8 10 8 7 7 6 6 6 6 6 6 6 9 8 9 8 9 9 9 7 7 7 7 7 6 7 7 8 8 9 9 11 11 10 11 11 11 12 12 12 13 13 13
7 7 8 6 6 7 5 5 6 5 6 6 9 8 8 7 4 7 7 6 6 6 6 7 7 7 8 8 8 9 10 10 11 11 11 12 12 12 13 13 14 14 14
6 7 6 4 5 7 6 4 4 4 2 6 5 8 7 5 3 2 0 2 4 5 5 5 6 7 6 7 7 8 9 9 9 10 14 12 13 13 14 14 15 17 16
11 8 7 7 7 8 6 7 7 7 5 5 6 3 5 4 4 5 4 4 2 1 2 3 4 5 7 8 14 16 13 11 8 10 10 13 15 17 15 14 15 15 18
11 12 11 10 12 11 10 11 12 11 10 10 11 11 11 11 10 11 10 9 8 6 6 6 13 22 21 16 19 14 14 12 10 8 8 13 15 15 15 17 22 17 20
Wind_Direction
130 123 124 123 126 131 132 134 135 139 147 155 163 169 174 184 198 212 223 216 207 174 188 251 255 214 189 197 193 157 186 199 141 124 97 122 110 144 130 107 140 142 140
125 120 121 125 128 132 133 134 141 142 148 153 161 168 177 191 199 218 226 225 138 164 184 211 242 211 199 192 186 172 198 187 161 146 132 105 89 106 110 114 102 122 133
122 123 126 129 130 132 134 141 143 146 150 154 162 175 185 187 218 235 247 180 163 181 209 201 238 208 188 189 184 183 170 163 147 137 114 100 77 101 98 92 96 99 107
129 128 128 131 133 136 139 146 150 153 153 152 166 168 146 189 327 293 312 206 193 194 214 217 225 205 187 173 173 185 165 149 133 128 117 109 101 101 102 111 99 99 106
128 126 129 133 132 136 142 150 149 153 158 156 164 137 127 67 35 5 119 131 154 160 159 225 234 182 75 156 171 188 152 152 143 136 115 119 122 126 121 118 106 102 89
133 132 137 136 135 136 145 147 157 155 162 151 143 126 102 68 46 358 343 132 136 140 166 161 146 122 100 97 68 305 170 165 156 147 134 138 128 120 125 126 122 120 103
136 139 139 139 138 147 153 156 157 152 140 157 135 124 93 93 56 41 303 123 134 140 117 132 134 114 153 151 108 104 93 78 150 158 146 147 142 143 137 134 133 131 126
142 141 145 153 145 150 161 158 153 143 159 158 139 105 88 84 62 74 327 100 111 132 157 157 163 153 151 149 156 143 137 143 147 159 145 145 138 142 137 139 128 111 103
145 146 151 147 149 152 153 152 150 148 144 167 138 111 90 95 77 144 251 123 110 118 124 133 147 152 142 154 152 144 135 95 53 80 106 117 125 119 128 122 126 131 130
142 145 144 148 153 158 154 161 158 167 169 166 133 86 64 113 100 39 72 100 99 95 84 123 132 131 143 158 144 137 125 131 117 106 103 98 109 111 111 133 139 137 143
141 139 143 143 153 155 161 165 170 189 142 157 129 92 103 106 118 66 97 121 132 131 121 119 127 132 135 151 134 134 129 125 118 122 119 118 128 136 134 148 155 146 173
139 146 137 147 158 151 162 161 176 171 172 161 134 121 110 109 64 97 106 114 154 127 106 107 110 120 118 114 110 107 107 127 128 128 128 133 140 147 157 176 185 188 169
144 137 143 157 148 145 155 175 172 180 171 166 173 131 125 107 93 83 96 97 71 104 97 93 101 97 92 92 114 121 132 126 131 131 137 134 152 148 140 152 140 109 97
143 145 146 153 147 142 152 159 188 166 164 159 152 131 130 117 124 128 120 116 98 91 99 96 89 79 86 113 130 143 151 150 146 136 134 139 141 153 167 161 168 191 173
146 147 155 138 163 147 117 64 137 77 28 165 145 149 148 142 159 150 146 147 136 118 122 120 112 113 122 133 154 165 158 129 142 150 145 153 166 164 175 174 180 190 207
151 167 160 148 153 153 145 127 54 48 42 35 33 60 117 116 135 132 115 103 119 156 139 134 127 128 133 151 160 146 157 155 158 155 163 174 167 182 174 178 188 193 207
161 171 140 154 152 145 142 140 137 82 64 45 38 39 80 128 131 123 122 131 148 170 141 142 145 154 160 172 169 161 166 173 173 179 175 188 181 183 174 188 195 200 209
168 157 162 156 144 147 146 162 152 149 146 132 57 45 72 117 123 122 130 131 154 182 156 152 158 161 167 167 172 174 173 169 182 177 182 192 189 196 190 205 205 214 219
164 174 184 153 148 119 160 160 146 158 136 124 130 99 76 70 77 137 166 156 179 168 176 175 178 175 182 182 182 183 181 183 189 191 192 193 196 207 203 214 223 221 228
179 144 197 152 135 165 146 167 145 133 132 140 155 135 135 145 139 161 195 174 177 187 185 190 198 189 206 195 190 189 189 188 193 204 206 203 207 213 220 218 225 230 213
174 153 261 180 156 175 155 152 155 159 147 153 142 137 163 173 161 174 198 178 203 189 180 190 182 193 201 206 200 196 193 211 210 211 214 214 215 220 226 233 234 234 244
182 154 188 192 159 168 165 166 157 165 159 156 118 140 176 235 161 174 194 192 193 195 180 197 191 195 203 204 205 202 207 210 220 215 218 220 217 222 230 231 238 241 246
174 174 178 176 159 110 167 179 172 176 161 160 137 139 186 227 187 165 170 184 195 201 198 196 209 205 205 206 209 215 215 215 218 221 223 226 229 230 231 236 242 244 246
164 157 151 144 133 171 149 161 140 38 313 159 138 142 172 192 188 101 309 164 184 195 209 213 224 241 234 229 229 232 234 239 239 234 234 242 240 235 241 249 245 246 251
17 49 93 106 108 84 84 72 67 70 86 72 74 100 118 90 77 61 43 28 7 289 247 274 272 263 245 270 359 352 5 9 304 315 292 258 246 255 261 260 253 252 257
46 47 62 65 71 67 71 70 65 57 54 47 41 39 40 54 42 35 33 18 16 25 12 27 31 43 45 37 27 15 16 20 14 355 314 274 268 269 264 257 259 261 262